Weather History for KALM - May, 2013

Change the Weather History Date:

Friday, May 10, 2013

  Actual Average Record
Temperature  
Mean Temperature 62 °F -  
Max Temperature 73 °F 85 °F 95 °F (1974)
Min Temperature 50 °F 54 °F 41 °F (1958)
Degree Days  
Heating Degree Days 4    
Growing Degree Days 12 (Base 50)    
Moisture  
Dew Point 36 °F    
Average Humidity 42    
Maximum Humidity 82    
Minimum Humidity 19    
Precipitation  
Precipitation 0.07 in - - ()
Sea Level Pressure  
Sea Level Pressure 30.13 in    
Wind  
Wind Speed 10 mph (East)    
Max Wind Speed 28 mph    
Max Gust Speed 37 mph    
Visibility 10 miles    
Events Thunderstorm    
Averages and records for this station are not official NWS values.
T = Trace of Precipitation, MM = Missing Value Source: NWS Daily Summary

Daily Weather History Graph

Daily Weather History Graph

Search for Another Location

Airport or City:

Trip Planner

Search our weather history database for the weather conditions in past years. The results will help you decide how hot, cold, wet, or windy it might be!

Date:

Astronomy

May. 10, 2013 Rise Set
Actual Time 6:08 AM MDT 7:52 PM MDT
Civil Twilight 5:41 AM MDT 8:19 PM MDT
Nautical Twilight 5:09 AM MDT 8:52 PM MDT
Astronomical Twilight 4:35 AM MDT 9:26 PM MDT
Moon 6:35 AM MDT (5/10) 8:43 PM MDT (5/10)
Length of Visible Light 14h 38m
Length of Day
13h 44m
New Moon, 1% of the Moon is Illuminated
May 10
New Moon
May 17
First Quarter
May 24
Full
May 31
Last Quarter
Jun 8
New

Hourly Weather History & Observations

Time (MDT) Temp. Dew Point Humidity Pressure Visibility Wind Dir Wind Speed Gust Speed Precip Events Conditions
12:15 AM 66.2 °F 23.0 °F 19% 30.03 in 10.0 mi NNE 9.2 mph - N/A   Clear
12:35 AM 64.4 °F 23.0 °F 21% 30.03 in 10.0 mi NNE 9.2 mph - N/A   Clear
12:55 AM 66.2 °F 23.0 °F 19% 30.03 in 10.0 mi NNE 6.9 mph - N/A   Clear
1:15 AM 64.4 °F 23.0 °F 21% 30.03 in 10.0 mi NNW 10.4 mph - N/A   Clear
1:35 AM 66.2 °F 23.0 °F 19% 30.02 in 10.0 mi North 11.5 mph - N/A   Partly Cloudy
1:55 AM 66.2 °F 24.8 °F 21% 30.02 in 10.0 mi North 13.8 mph 19.6 mph N/A   Mostly Cloudy
2:15 AM 66.2 °F 26.6 °F 23% 30.03 in 10.0 mi NE 8.1 mph - N/A   Mostly Cloudy
2:35 AM 68.0 °F 28.4 °F 23% 30.03 in 10.0 mi NNE 12.7 mph 18.4 mph N/A   Scattered Clouds
2:55 AM 66.2 °F 28.4 °F 24% 30.03 in 10.0 mi North 12.7 mph 24.2 mph N/A   Clear
3:15 AM 64.4 °F 28.4 °F 26% 30.03 in 10.0 mi ENE 15.0 mph 23.0 mph N/A   Clear
3:35 AM 64.4 °F 28.4 °F 26% 30.04 in 10.0 mi East 11.5 mph 19.6 mph N/A   Scattered Clouds
3:55 AM 62.6 °F 24.8 °F 24% 30.05 in 10.0 mi South 10.4 mph - N/A   Overcast
4:15 AM 62.6 °F 24.8 °F 24% 30.06 in 10.0 mi NW 6.9 mph - N/A   Mostly Cloudy
4:35 AM 62.6 °F 32.0 °F 32% 30.05 in 10.0 mi West 3.5 mph - N/A   Clear
4:55 AM 59.0 °F 28.4 °F 31% 30.05 in 10.0 mi WNW 6.9 mph - N/A   Clear
5:15 AM 59.0 °F 32.0 °F 36% 30.06 in 10.0 mi North 3.5 mph - N/A   Clear
5:35 AM 59.0 °F 32.0 °F 36% 30.06 in 10.0 mi NE 8.1 mph - N/A   Clear
6:15 AM 59.0 °F 32.0 °F 36% 30.07 in 10.0 mi ENE 9.2 mph - N/A   Clear
6:35 AM 60.8 °F 32.0 °F 34% 30.08 in 10.0 mi ENE 8.1 mph - N/A   Clear
7:15 AM 59.0 °F 28.4 °F 31% 30.10 in 10.0 mi South 10.4 mph - N/A   Partly Cloudy
7:35 AM 59.0 °F 32.0 °F 36% 30.11 in 10.0 mi South 11.5 mph - N/A   Clear
7:55 AM 59.0 °F 32.0 °F 36% 30.11 in 10.0 mi South 9.2 mph - N/A   Mostly Cloudy
8:15 AM 62.6 °F 33.8 °F 34% 30.12 in 10.0 mi South 11.5 mph 16.1 mph N/A   Overcast
8:35 AM 64.4 °F 35.6 °F 34% 30.12 in 10.0 mi South 16.1 mph - N/A   Overcast
8:55 AM 64.4 °F 33.8 °F 32% 30.13 in 10.0 mi South 11.5 mph - N/A   Scattered Clouds
9:15 AM 64.4 °F 35.6 °F 34% 30.13 in 10.0 mi SSW 9.2 mph - N/A   Clear
9:35 AM 66.2 °F 33.8 °F 30% 30.13 in 10.0 mi South 9.2 mph - N/A   Clear
9:55 AM 66.2 °F 33.8 °F 30% 30.13 in 10.0 mi South 8.1 mph - N/A   Clear
10:15 AM 68.0 °F 33.8 °F 28% 30.13 in 10.0 mi Calm Calm - N/A Thunderstorm Clear
10:35 AM 69.8 °F 32.0 °F 25% 30.13 in 10.0 mi South 8.1 mph - N/A   Clear
11:15 AM 71.6 °F 32.0 °F 23% 30.13 in 10.0 mi South 13.8 mph 18.4 mph N/A   Clear
11:35 AM 71.6 °F 32.0 °F 23% 30.13 in 10.0 mi SW 11.5 mph - N/A   Clear
11:55 AM 71.6 °F 32.0 °F 23% 30.12 in 10.0 mi SSW 10.4 mph 17.3 mph N/A Thunderstorm Scattered Clouds
12:15 PM 73.4 °F 32.0 °F 22% 30.12 in 10.0 mi SSW 18.4 mph 25.3 mph N/A Thunderstorm Mostly Cloudy
12:35 PM 73.4 °F 32.0 °F 22% 30.11 in 10.0 mi SSW 11.5 mph 24.2 mph N/A   Partly Cloudy
12:55 PM 73.4 °F 32.0 °F 22% 30.10 in 10.0 mi South 16.1 mph 25.3 mph N/A   Clear
1:15 PM 73.4 °F 32.0 °F 22% 30.10 in 10.0 mi SSW 15.0 mph 19.6 mph N/A Thunderstorm Mostly Cloudy
1:35 PM 71.6 °F 32.0 °F 23% 30.10 in 10.0 mi SSE 6.9 mph - N/A Thunderstorm Thunderstorm
1:55 PM 71.6 °F 32.0 °F 23% 30.10 in 10.0 mi WNW 11.5 mph 16.1 mph N/A Thunderstorm Mostly Cloudy
2:15 PM 62.6 °F 41.0 °F 45% 30.10 in 5.0 mi NE 27.6 mph 36.8 mph N/A Thunderstorm Haze
2:35 PM 55.4 °F 46.4 °F 72% 30.13 in 4.0 mi ENE 25.3 mph 34.5 mph 0.02 in Thunderstorm Unknown
2:55 PM 53.6 °F 46.4 °F 77% 30.13 in 5.0 mi ENE 24.2 mph 32.2 mph 0.05 in Thunderstorm Haze
3:15 PM 55.4 °F 46.4 °F 72% 30.14 in 10.0 mi East 16.1 mph 29.9 mph 0.01 in Thunderstorm Thunderstorm
3:35 PM 55.4 °F 46.4 °F 72% 30.15 in 10.0 mi Calm Calm - 0.02 in   Overcast
3:55 PM 57.2 °F 48.2 °F 72% 30.13 in 10.0 mi SE 11.5 mph - 0.02 in   Scattered Clouds
4:15 PM 57.2 °F 48.2 °F 72% 30.13 in 10.0 mi ESE 8.1 mph - N/A Thunderstorm Thunderstorm
4:35 PM 59.0 °F 50.0 °F 72% 30.13 in 10.0 mi NE 3.5 mph - N/A   Clear
4:55 PM 60.8 °F 44.6 °F 55% 30.13 in 10.0 mi SE 4.6 mph - N/A   Clear
5:15 PM 62.6 °F 42.8 °F 48% 30.13 in 10.0 mi SE 15.0 mph 18.4 mph N/A   Clear
5:35 PM 64.4 °F 41.0 °F 42% 30.14 in 10.0 mi SSE 9.2 mph - N/A   Clear
5:55 PM 64.4 °F 44.6 °F 49% 30.17 in 10.0 mi West 19.6 mph 26.5 mph N/A   Scattered Clouds
6:15 PM 62.6 °F 44.6 °F 52% 30.18 in 10.0 mi West 18.4 mph - N/A   Mostly Cloudy
6:35 PM 60.8 °F 41.0 °F 48% 30.18 in 2.5 mi West 15.0 mph 25.3 mph N/A   Haze
6:55 PM 59.0 °F 41.0 °F 51% 30.19 in 6.0 mi West 8.1 mph - N/A   Haze
7:15 PM 59.0 °F 42.8 °F 55% 30.20 in 8.0 mi NNW 6.9 mph - N/A   Clear
7:35 PM 59.0 °F 42.8 °F 55% 30.20 in 8.0 mi NNE 6.9 mph - N/A   Clear
7:55 PM 59.0 °F 44.6 °F 59% 30.22 in 8.0 mi NE 8.1 mph - N/A   Clear
8:15 PM 57.2 °F 44.6 °F 63% 30.22 in 10.0 mi NNE 6.9 mph - N/A   Clear
8:35 PM 57.2 °F 44.6 °F 63% 30.22 in 10.0 mi NNE 9.2 mph - N/A   Clear
8:55 PM 57.2 °F 44.6 °F 63% 30.21 in 8.0 mi NNE 11.5 mph - N/A   Clear
9:15 PM 57.2 °F 42.8 °F 59% 30.21 in 9.0 mi North 10.4 mph - N/A   Clear
9:35 PM 55.4 °F 44.6 °F 67% 30.22 in 10.0 mi North 6.9 mph - N/A   Clear
9:55 PM 55.4 °F 42.8 °F 63% 30.22 in 10.0 mi North 11.5 mph - N/A   Clear
10:15 PM 53.6 °F 44.6 °F 72% 30.23 in 10.0 mi ENE 8.1 mph - N/A   Clear
10:35 PM 53.6 °F 44.6 °F 72% 30.23 in 10.0 mi NE 6.9 mph - N/A   Clear
10:55 PM 51.8 °F 42.8 °F 71% 30.23 in 10.0 mi ESE 3.5 mph - N/A   Clear
11:15 PM 50.0 °F 44.6 °F 82% 30.24 in 10.0 mi East 4.6 mph - N/A   Clear
11:35 PM 53.6 °F 42.8 °F 67% 30.24 in 10.0 mi SE 3.5 mph - N/A   Clear
11:55 PM 53.6 °F 42.8 °F 67% 30.24 in 10.0 mi East 6.9 mph - N/A   Clear